Hot Springs, AR

11:18 AM CST on November 21, 2019 (GMT -0600)
Hot Springs Memorial

Weather History for KHOT - October, 2019

Change the Weather History Date:

Tuesday, October 22, 2019

  Actual Average Record
Temperature  
Mean Temperature 57 °F -  
Max Temperature 69 °F 74 °F 90 °F (2003)
Min Temperature 46 °F 48 °F 36 °F (1987)
Degree Days  
Heating Degree Days 8    
Growing Degree Days 7 (Base 50)    
Moisture  
Dew Point 37 °F    
Average Humidity 53    
Maximum Humidity 89    
Minimum Humidity 25    
Precipitation  
Precipitation 0.00 in - - ()
Sea Level Pressure  
Sea Level Pressure 30.10 in    
Wind  
Wind Speed 3 mph (West)    
Max Wind Speed 13 mph    
Max Gust Speed 21 mph    
Visibility 10 miles    
Events      
Averages and records for this station are not official NWS values.
T = Trace of Precipitation, MM = Missing Value Source: NWS Daily Summary

Daily Weather History Graph

Daily Weather History Graph

Search for Another Location

Airport or City:

Astronomy

Oct. 22, 2019 Rise Set
Actual Time 7:23 AM CDT 6:29 PM CDT
Civil Twilight 6:57 AM CDT 6:55 PM CDT
Nautical Twilight 6:28 AM CDT 7:24 PM CDT
Astronomical Twilight 5:59 AM CDT 7:53 PM CDT
Moon 12:55 AM CDT (10/22) 3:20 PM CDT (10/22)
Length of Visible Light 11h 57m
Length of Day
11h 06m
Last Quarter, 37% of the Moon is Illuminated
Oct 22
Last Quarter
Oct 27
New
Nov 4
First Quarter
Nov 12
Full
Nov 19
Last Quarter

Hourly Weather History & Observations

Time (CDT) Temp. Dew Point Humidity Pressure Visibility Wind Dir Wind Speed Gust Speed Precip Events Conditions
12:53 AM 53.1 °F 43.0 °F 69% 29.99 in 10.0 mi Calm Calm - N/A   Clear
1:53 AM 53.1 °F 41.0 °F 64% 29.99 in 10.0 mi Calm Calm - N/A   Clear
2:53 AM 50.0 °F 42.1 °F 74% 30.01 in 10.0 mi Calm Calm - N/A   Clear
3:53 AM 50.0 °F 41.0 °F 71% 30.02 in 10.0 mi Calm Calm - N/A   Clear
4:53 AM 51.1 °F 39.0 °F 63% 30.04 in 10.0 mi West 3.5 mph - N/A   Clear
5:53 AM 51.1 °F 37.9 °F 61% 30.05 in 10.0 mi Calm Calm - N/A   Clear
6:53 AM 46.9 °F 37.9 °F 71% 30.09 in 10.0 mi NW 3.5 mph - N/A   Clear
8:53 AM 54.0 °F 35.1 °F 49% 30.15 in 10.0 mi West 6.9 mph - N/A   Clear
9:53 AM 57.9 °F 36.0 °F 44% 30.17 in 10.0 mi West 9.2 mph - N/A   Clear
10:53 AM 60.1 °F 30.9 °F 33% 30.18 in 10.0 mi WNW 12.7 mph 19.6 mph N/A   Clear
11:53 AM 63.0 °F 30.0 °F 29% 30.19 in 10.0 mi WNW 8.1 mph 17.3 mph N/A   Clear
12:53 PM 64.9 °F 30.0 °F 27% 30.18 in 10.0 mi West 11.5 mph 18.4 mph N/A   Clear
1:53 PM 66.9 °F 30.9 °F 26% 30.15 in 10.0 mi West 8.1 mph 20.7 mph N/A   Clear
2:53 PM 66.9 °F 30.9 °F 26% 30.13 in 10.0 mi WNW 9.2 mph 20.7 mph N/A   Clear
3:53 PM 68.0 °F 30.9 °F 25% 30.12 in 10.0 mi West 10.4 mph 19.6 mph N/A   Clear
4:53 PM 68.0 °F 32.0 °F 26% 30.10 in 10.0 mi West 10.4 mph 18.4 mph N/A   Clear
5:53 PM 66.0 °F 34.0 °F 30% 30.10 in 10.0 mi WNW 5.8 mph - N/A   Clear
6:53 PM 62.1 °F 37.0 °F 39% 30.11 in 10.0 mi WSW 3.5 mph - N/A   Clear
7:53 PM 54.0 °F 41.0 °F 62% 30.12 in 10.0 mi Calm Calm - N/A   Clear
8:53 PM 51.1 °F 42.1 °F 71% 30.12 in 10.0 mi Calm Calm - N/A   Clear
9:53 PM 48.0 °F 42.1 °F 80% 30.13 in 10.0 mi Calm Calm - N/A   Clear
10:53 PM 48.0 °F 42.1 °F 80% 30.13 in 10.0 mi Calm Calm - N/A   Clear
11:53 PM 46.0 °F 43.0 °F 89% 30.12 in 10.0 mi Calm Calm - N/A   Clear